Torna al catalogo

STARLINK-11363

AttivoComunicazioniVLEO
NORAD 62012·PAYLOAD·🇺🇸 United States

Lanciato Nov 18, 2024 da Vandenberg Space Force Base

Loading…

Prossimi Passaggi (prossime 24 ore)

TLE

AggiornatoSource: CelesTrak SupGP

Epoca: Sep 14, 2026, 20:50 UTC

1 62012C 24213E   26257.86854167  .00036348  00000+0  29930-3 0  2576
2 62012  53.1570 188.6186 0001429  93.7178  87.4469 15.69699308    18

Traccia STARLINK-11363 in tempo reale con AllMySat

Download on the App Store